When you browse on this site, cookies collect data to enhance your experience and personalize the content and advertising you see.
Visit our Privacy Policy to learn more. By continuing to use the site, you agree to this use of cookies and data.
  • In Denmark
  • List of Countries
  • For 7 days
  • Water Temperature
  • Satellite Maps
  • Weather Map
  • Weather Widgets
  • user-avatar
    Login

    Hourly Weather Biskupin

    Today, 23 July, Tuesday

    Time Temperature Precipitation Wind Pressure Humidity
    00:00 +19°C° 0 mm 1 mps 752 mmHg 89%
    01:00 +19°C° 0 mm 1 mps 752 mmHg 90%
    02:00 +19°C° 0 mm 1 mps 752 mmHg 89%
    03:00 +19°C° 0 mm 1 mps 752 mmHg 87%
    04:00 +20°C° 0 mm 1 mps 752 mmHg 86%
    05:00 +19°C° 0 mm 2 mps 752 mmHg 83%
    06:00 +20°C° 0 mm 3 mps 752 mmHg 79%
    07:00 +21°C° 0 mm 4 mps 752 mmHg 75%
    08:00 +22°C° 0 mm 4 mps 752 mmHg 71%
    09:00 +25°C° 0 mm 4 mps 752 mmHg 66%
    10:00 +26°C° 0 mm 4 mps 752 mmHg 61%
    11:00 +27°C° 0 mm 4 mps 752 mmHg 58%
    12:00 +28°C° 0 mm 4 mps 751 mmHg 56%
    13:00 +29°C° 0 mm 4 mps 751 mmHg 53%
    14:00 +29°C° 0 mm 4 mps 751 mmHg 52%
    15:00 +29°C° 0 mm 4 mps 751 mmHg 52%
    16:00 +29°C° 0 mm 3 mps 751 mmHg 52%
    17:00 +28°C° 0 mm 3 mps 751 mmHg 57%
    18:00 +27°C° 0 mm 2 mps 751 mmHg 61%
    19:00 +26°C° 0 mm 2 mps 750 mmHg 66%
    20:00 +25°C° 0 mm 1 mps 751 mmHg 71%
    21:00 +23°C° 0 mm 1 mps 751 mmHg 76%
    22:00 +20°C° 0 mm 0 mps 751 mmHg 82%
    23:00 +19°C° 0 mm 0 mps 751 mmHg 84%

    Tomorrow, 24 July, Wednesday

    Time Temperature Precipitation Wind Pressure Humidity
    00:00 +19°C° 0 mm 0 mps 751 mmHg 86%
    01:00 +18°C° 0 mm 0 mps 751 mmHg 88%
    02:00 +20°C° 0 mm 1 mps 750 mmHg 89%
    03:00 +19°C° 0 mm 1 mps 750 mmHg 91%
    04:00 +19°C° 0 mm 1 mps 750 mmHg 92%
    05:00 +18°C° 0 mm 0 mps 750 mmHg 87%
    06:00 +20°C° 0 mm 0 mps 750 mmHg 82%
    07:00 +21°C° 0 mm 0 mps 750 mmHg 77%
    08:00 +23°C° 0 mm 0 mps 750 mmHg 69%
    09:00 +27°C° 0 mm 1 mps 750 mmHg 61%
    10:00 +28°C° 0 mm 1 mps 751 mmHg 53%
    11:00 +29°C° 0 mm 1 mps 750 mmHg 49%
    12:00 +30°C° 0 mm 1 mps 750 mmHg 45%
    13:00 +31°C° 0 mm 1 mps 750 mmHg 41%
    14:00 +31°C° 0 mm 1 mps 750 mmHg 40%
    15:00 +31°C° 0 mm 1 mps 750 mmHg 40%
    16:00 +31°C° 0 mm 2 mps 750 mmHg 40%
    17:00 +30°C° 0 mm 2 mps 749 mmHg 47%
    18:00 +28°C° 0 mm 2 mps 749 mmHg 55%
    19:00 +27°C° 0 mm 2 mps 749 mmHg 63%
    20:00 +25°C° 0 mm 2 mps 749 mmHg 68%
    21:00 +24°C° 0 mm 2 mps 750 mmHg 73%
    22:00 +22°C° 0 mm 1 mps 750 mmHg 78%
    23:00 +22°C° 0 mm 1 mps 750 mmHg 79%

    Day after tomorrow, 25 July, Thursday

    Time Temperature Precipitation Wind Pressure Humidity
    00:00 +22°C° 0 mm 1 mps 750 mmHg 81%
    01:00 +21°C° 0 mm 1 mps 750 mmHg 83%
    02:00 +21°C° 0 mm 1 mps 750 mmHg 84%
    03:00 +20°C° 0 mm 1 mps 750 mmHg 85%
    04:00 +18°C° 0 mm 0 mps 750 mmHg 86%
    05:00 +22°C° 0 mm 1 mps 750 mmHg 81%
    06:00 +23°C° 0 mm 1 mps 750 mmHg 76%
    07:00 +25°C° 0 mm 1 mps 750 mmHg 70%
    08:00 +26°C° 0 mm 1 mps 750 mmHg 64%
    09:00 +28°C° 0 mm 1 mps 750 mmHg 58%
    10:00 +30°C° 0 mm 1 mps 750 mmHg 52%
    11:00 +31°C° 0 mm 1 mps 750 mmHg 47%
    12:00 +31°C° 0 mm 1 mps 750 mmHg 43%
    13:00 +32°C° 0 mm 1 mps 750 mmHg 39%
    14:00 +32°C° 0 mm 1 mps 749 mmHg 39%
    15:00 +32°C° 0 mm 1 mps 749 mmHg 38%
    16:00 +32°C° 0 mm 2 mps 749 mmHg 38%
    17:00 +31°C° 0 mm 2 mps 749 mmHg 44%
    18:00 +29°C° 0 mm 2 mps 748 mmHg 51%
    19:00 +28°C° 0 mm 2 mps 748 mmHg 57%
    20:00 +26°C° 0 mm 2 mps 749 mmHg 62%
    21:00 +25°C° 0 mm 2 mps 749 mmHg 67%
    22:00 +23°C° 0 mm 2 mps 749 mmHg 71%
    23:00 +23°C° 0 mm 2 mps 749 mmHg 74%

    26 July, Friday

    Time Temperature Precipitation Wind Pressure Humidity
    00:00 +22°C° 0 mm 1 mps 749 mmHg 77%
    01:00 +21°C° 0 mm 1 mps 749 mmHg 80%
    02:00 +21°C° 0 mm 1 mps 749 mmHg 83%
    03:00 +19°C° 0 mm 2 mps 748 mmHg 86%
    04:00 +18°C° 0 mm 2 mps 748 mmHg 88%
    05:00 +19°C° 0 mm 2 mps 748 mmHg 82%
    06:00 +20°C° 0 mm 2 mps 748 mmHg 75%
    07:00 +21°C° 0 mm 3 mps 748 mmHg 68%
    08:00 +22°C° 0 mm 3 mps 748 mmHg 61%
    09:00 +25°C° 0 mm 3 mps 748 mmHg 54%
    10:00 +26°C° 0 mm 4 mps 748 mmHg 47%
    11:00 +27°C° 0 mm 4 mps 748 mmHg 46%
    12:00 +27°C° 0 mm 4 mps 748 mmHg 46%
    13:00 +28°C° 0 mm 3 mps 747 mmHg 46%
    14:00 +28°C° 0 mm 3 mps 747 mmHg 45%
    15:00 +28°C° 0 mm 3 mps 747 mmHg 45%
    16:00 +28°C° 0 mm 3 mps 746 mmHg 44%
    17:00 +27°C° 0 mm 3 mps 746 mmHg 50%
    18:00 +26°C° 0 mm 3 mps 746 mmHg 55%
    19:00 +25°C° 0 mm 3 mps 746 mmHg 61%
    20:00 +22°C° 0 mm 3 mps 746 mmHg 64%
    21:00 +21°C° 0 mm 3 mps 746 mmHg 68%
    22:00 +19°C° 0 mm 2 mps 747 mmHg 71%
    23:00 +19°C° 0 mm 2 mps 746 mmHg 74%

    27 July, Saturday

    Time Temperature Precipitation Wind Pressure Humidity
    00:00 +18°C° 0 mm 2 mps 746 mmHg 78%
    01:00 +17°C° 0 mm 2 mps 746 mmHg 81%
    02:00 +17°C° 0 mm 2 mps 746 mmHg 85%
    03:00 +18°C° 0 mm 1 mps 746 mmHg 88%
    04:00 +16°C° 0 mm 1 mps 746 mmHg 92%
    05:00 +17°C° 0 mm 2 mps 746 mmHg 88%
    06:00 +19°C° 0 mm 2 mps 746 mmHg 84%
    07:00 +20°C° 0 mm 2 mps 746 mmHg 80%
    08:00 +22°C° 0.1 mm 3 mps 746 mmHg 74%
    09:00 +24°C° 0.1 mm 3 mps 746 mmHg 69%
    10:00 +25°C° 0.1 mm 4 mps 746 mmHg 63%
    11:00 +26°C° 0.2 mm 4 mps 745 mmHg 60%
    12:00 +27°C° 0.2 mm 4 mps 745 mmHg 57%
    13:00 +28°C° 0.2 mm 4 mps 745 mmHg 55%
    14:00 +28°C° 0.2 mm 4 mps 745 mmHg 54%
    15:00 +28°C° 0.2 mm 5 mps 744 mmHg 53%
    16:00 +28°C° 0.2 mm 5 mps 744 mmHg 52%
    17:00 +27°C° 0 mm 4 mps 744 mmHg 56%
    18:00 +26°C° 0 mm 4 mps 744 mmHg 60%
    19:00 +25°C° 0 mm 3 mps 744 mmHg 65%
    20:00 +24°C° 0 mm 3 mps 744 mmHg 68%
    21:00 +22°C° 0 mm 3 mps 744 mmHg 71%
    22:00 +20°C° 0 mm 3 mps 744 mmHg 74%
    23:00 +20°C° 0 mm 3 mps 744 mmHg 78%

    28 July, Sunday

    Time Temperature Precipitation Wind Pressure Humidity
    00:00 +19°C° 0 mm 3 mps 744 mmHg 82%
    01:00 +18°C° 0 mm 2 mps 744 mmHg 86%
    02:00 +18°C° 0 mm 2 mps 744 mmHg 89%
    03:00 +17°C° 0 mm 2 mps 744 mmHg 91%
    04:00 +17°C° 0 mm 2 mps 744 mmHg 93%
    05:00 +18°C° 0 mm 2 mps 744 mmHg 88%
    06:00 +19°C° 0 mm 3 mps 744 mmHg 83%
    07:00 +20°C° 0 mm 3 mps 744 mmHg 77%
    08:00 +22°C° 0 mm 4 mps 744 mmHg 70%
    09:00 +25°C° 0 mm 4 mps 744 mmHg 62%
    10:00 +27°C° 0 mm 4 mps 744 mmHg 55%
    11:00 +28°C° 0 mm 4 mps 744 mmHg 51%
    12:00 +29°C° 0 mm 4 mps 744 mmHg 47%
    13:00 +30°C° 0 mm 4 mps 743 mmHg 43%
    14:00 +29°C° 0.1 mm 5 mps 743 mmHg 47%
    15:00 +29°C° 0.1 mm 5 mps 743 mmHg 50%
    16:00 +28°C° 0.1 mm 5 mps 743 mmHg 54%
    17:00 +27°C° 0.5 mm 4 mps 743 mmHg 61%
    18:00 +26°C° 0.5 mm 4 mps 743 mmHg 67%
    19:00 +24°C° 0.5 mm 3 mps 743 mmHg 74%
    20:00 +23°C° 0.2 mm 2 mps 743 mmHg 78%
    21:00 +21°C° 0.2 mm 2 mps 743 mmHg 82%
    22:00 +20°C° 0.2 mm 2 mps 743 mmHg 87%
    23:00 +20°C° 0 mm 2 mps 743 mmHg 88%
    Show more